(325374) = 2007 TX350 = 2008 RR85

Discovered at Kitt Peak on 2008-09-05 by Spacewatch.

Orbit

Orbit type: Jupiter Trojan

Note: WebGL enabled browser required.

epoch2024-03-31.0
epoch JD2460400.5
perihelion date2020-03-29.13549
perihelion JD2458937.63549
argument of perihelion (°)2.26633
ascending node (°)351.02003
inclination (°)18.29756
eccentricity0.0331127
perihelion distance (AU)5.1155098
Tisserand w.r.t. Jupiter2.9
ΔV w.r.t. Earth (km/sec)13.6
semimajor axis (AU)5.2906991
mean anomaly (°)118.47817
mean daily motion (°/day)0.08099050
aphelion distance (AU)5.466
period (years)12.17
P-vector [x]0.99283076
P-vector [y]-0.11401063
P-vector [z]-0.03589796
Q-vector [x]0.10902131
Q-vector [y]0.74062099
Q-vector [z]0.66301953
absolute magnitude13.21
phase slope0.15
uncertainty0
referenceMPEC 2024-D45
observations used293
oppositions16
arc length (days)10429
first opposition used1995
last opposition used2024
residual rms (arc-secs)0.70
perturbers coarse indicatorM-v
perturbers precise indicator003Ek
first observation date used1995-07-30.0
last observation date used2024-02-17.0
computer nameMPCLINUX
JD of orbit computation2456760.684550
perihelion JD uncertainty (days)1.7439E-03
argument of perihelion uncertainty (°)1.2971E-04
ascending node uncertainty (°)2.0534E-05
inclination uncertainty (°)1.3906E-05
eccentricity uncertainty 1.6109E-07
perihelion distance uncertainty (AU)7.8496E-07
Minimum Orbit Intersection Distances (in AU)
for orbit epoch: 2460400.5, reference: E2024-D45
Mercury4.72682
Venus4.38972
Earth4.10995
Mars3.72954
Jupiter0.04051
Saturn3.88618
Uranus12.9754
Neptune24.7832

Observations

300 total observations over interval: 1995 07 30.43586 – 2024 02 17.152358
These data are available for download (format description).

Date (UT) J2000 RA J2000 Dec Magn Location Ref
1995 07 30.43586 23 08 33.38 -11 36 21.4 20.8 V 691 – Steward Observatory, Kitt Peak-Spacewatch MPS 261663
1995 07 30.45546 23 08 32.96 -11 36 22.9 21.5 V 691 – Steward Observatory, Kitt Peak-Spacewatch MPS 261663
1995 07 30.46290 23 08 32.81 -11 36 23.0 21.1 V 691 – Steward Observatory, Kitt Peak-Spacewatch MPS 261663
2002 03 10.27469 11 42 35.82 +00 14 46.9 20.8 V 291 – LPL/Spacewatch II MPS 261663
2002 03 10.32400 11 42 34.20 +00 14 51.3 20.7 V 291 – LPL/Spacewatch II MPS 261663
2002 03 10.36062 11 42 32.91 +00 14 53.5 20.4 V 291 – LPL/Spacewatch II MPS 261663
2002 03 12.27882 11 41 31.18 +00 17 47.6 20.4   644 – Palomar Mountain/NEAT MPS 417282
2002 03 12.34848 11 41 28.86 +00 17 55.0   644 – Palomar Mountain/NEAT MPS 417282
2002 03 12.42365 11 41 26.36 +00 18 01.1   644 – Palomar Mountain/NEAT MPS 417282
2002 03 13.44642 11 40 53.27 +00 19 36.8   644 – Palomar Mountain/NEAT MPS 417283
2002 03 13.45679 11 40 52.91 +00 19 38.6   644 – Palomar Mountain/NEAT MPS 417283
2002 03 13.46716 11 40 52.54 +00 19 39.4   644 – Palomar Mountain/NEAT MPS 417283
2003 03 23.37874 13 22 56.44 -21 32 50.1   644 – Palomar Mountain/NEAT MPS 417283
2003 03 23.39961 13 22 55.84 -21 32 51.0 20.7   644 – Palomar Mountain/NEAT MPS 417283
2003 03 23.42068 13 22 55.21 -21 32 50.3   644 – Palomar Mountain/NEAT MPS 417283
2007 10 14.19008 22 29 28.17 -13 03 46.2 20.5 V G96 – Mt. Lemmon Survey MPS 223820
2007 10 14.19736 22 29 28.06 -13 03 45.8 20.7 V G96 – Mt. Lemmon Survey MPS 223820
2007 10 14.20471 22 29 27.92 -13 03 45.3 20.8 V G96 – Mt. Lemmon Survey MPS 223820
2007 10 14.21204 22 29 27.81 -13 03 44.8 20.8 V G96 – Mt. Lemmon Survey MPS 223820
2007 10 15.15697 22 29 12.01 -13 02 47.4 20.6 V G96 – Mt. Lemmon Survey MPS 223820
2007 10 15.16531 22 29 11.86 -13 02 46.9 20.4 V G96 – Mt. Lemmon Survey MPS 223820
2007 10 15.17367 22 29 11.72 -13 02 47.1 20.6 V G96 – Mt. Lemmon Survey MPS 223820
2007 10 15.18206 22 29 11.58 -13 02 46.2 20.4 V G96 – Mt. Lemmon Survey MPS 223820
2008 09 05.37509 00 46 25.35 +12 51 22.4 20.1 V 691 – Steward Observatory, Kitt Peak-Spacewatch MPS 256828
2008 09 05.39618 00 46 24.78 +12 51 21.9 20.1 V 691 – Steward Observatory, Kitt Peak-Spacewatch MPS 256828
2008 09 05.41381 00 46 24.30 +12 51 22.7 20.0 V 691 – Steward Observatory, Kitt Peak-Spacewatch MPS 256828
2008 09 09.37827 00 44 35.90 +12 51 39.0 20.5 V 691 – Steward Observatory, Kitt Peak-Spacewatch MPS 256828
2008 09 09.39591 00 44 35.39 +12 51 38.3 20.3 V 691 – Steward Observatory, Kitt Peak-Spacewatch MPS 256828
2008 09 09.41351 00 44 34.88 +12 51 38.0 20.2 V 691 – Steward Observatory, Kitt Peak-Spacewatch MPS 256828
2008 09 23.17953 00 37 28.24 +12 44 02.2 20.2 V 691 – Steward Observatory, Kitt Peak-Spacewatch MPS 261663
2008 09 23.19714 00 37 27.63 +12 44 00.9 20.3 V 691 – Steward Observatory, Kitt Peak-Spacewatch MPS 261663
2008 09 23.21477 00 37 27.04 +12 43 59.8 20.3 V 691 – Steward Observatory, Kitt Peak-Spacewatch MPS 261663
2008 10 29.28043 00 18 22.06 +11 45 06.8 19.7 V G96 – Mt. Lemmon Survey MPS 261663
2008 10 29.28802 00 18 21.85 +11 45 06.0 20.1 V G96 – Mt. Lemmon Survey MPS 261663
2008 10 29.29571 00 18 21.63 +11 45 05.1 20.4 V G96 – Mt. Lemmon Survey MPS 261663
2008 10 29.30332 00 18 21.45 +11 45 04.5 20.1 V G96 – Mt. Lemmon Survey MPS 261663
2010 01 27.173406 02 12 11.69 +31 11 09.5   C51 – WISE MPS 335023
2010 01 27.305711 02 12 14.59 +31 11 02.0   C51 – WISE MPS 335023
2010 01 27.438142 02 12 17.57 +31 10 56.4   C51 – WISE MPS 335023
2010 01 27.50423 02 12 18.89 +31 10 52.5   C51 – WISE MPS 335023
2010 01 27.570447 02 12 20.304 +31 10 49.87   C51 – WISE MPS 904067
2010 01 27.636536 02 12 21.74 +31 10 45.7   C51 – WISE MPS 335023
2010 01 27.63666 02 12 21.75 +31 10 45.6   C51 – WISE MPS 335023
2010 01 27.768966 02 12 24.68 +31 10 39.6   C51 – WISE MPS 335023
2010 01 27.901271 02 12 27.63 +31 10 33.8   C51 – WISE MPS 335023
2010 01 28.033575 02 12 30.51 +31 10 27.4   C51 – WISE MPS 335023
2010 01 28.165880 02 12 33.39 +31 10 20.6   C51 – WISE MPS 335023
2010 01 28.166007 02 12 33.53 +31 10 20.9   C51 – WISE MPS 335023
2012 01 28.45719 07 50 10.740 +39 58 55.84 20.6 w F51 – Pan-STARRS 1, Haleakala MPS 410230
2012 01 28.47125 07 50 10.169 +39 58 55.33 20.6 w F51 – Pan-STARRS 1, Haleakala MPS 410230
2012 01 28.48520 07 50 09.593 +39 58 54.81 20.6 w F51 – Pan-STARRS 1, Haleakala MPS 410230
2012 01 28.49915 07 50 09.023 +39 58 54.25 20.5 w F51 – Pan-STARRS 1, Haleakala MPS 410230
2012 01 30.55349 07 48 47.85 +39 57 30.0 20.8 R 300 – Bisei Spaceguard Center-BATTeRS MPS 418527
2012 01 30.55812 07 48 47.67 +39 57 29.5 20.8 R 300 – Bisei Spaceguard Center-BATTeRS MPS 418527
2012 01 30.56275 07 48 47.44 +39 57 29.5 20.6 R 300 – Bisei Spaceguard Center-BATTeRS MPS 418527
2012 01 30.56737 07 48 47.29 +39 57 29.3 20.7 R 300 – Bisei Spaceguard Center-BATTeRS MPS 418527
2013 02 09.37460 10 03 54.886 +22 58 04.23 20.6 w F51 – Pan-STARRS 1, Haleakala MPS 456273
2013 02 09.38956 10 03 54.354 +22 58 05.61 20.5 w F51 – Pan-STARRS 1, Haleakala MPS 456273
2013 02 09.40459 10 03 53.825 +22 58 06.95 20.6 w F51 – Pan-STARRS 1, Haleakala MPS 456273
2013 02 09.41968 10 03 53.285 +22 58 08.48 20.4 w F51 – Pan-STARRS 1, Haleakala MPS 456273
2013 02 17.22637 09 59 19.10 +23 08 48.0 20.0 V G96 – Mt. Lemmon Survey MPS 457272
2013 02 17.23331 09 59 18.78 +23 08 48.5 20.4 V G96 – Mt. Lemmon Survey MPS 457272
2013 02 17.24030 09 59 18.52 +23 08 48.9 20.3 V G96 – Mt. Lemmon Survey MPS 457272
2013 02 17.24727 09 59 18.31 +23 08 49.6 20.4 V G96 – Mt. Lemmon Survey MPS 457272
2013 03 13.13705 09 46 15.84 +23 18 49.0   I41 – Palomar Mountain--ZTF MPS 461631
2013 03 13.14876 09 46 15.51 +23 18 48.8   I41 – Palomar Mountain--ZTF MPS 461631
2013 03 13.16034 09 46 15.19 +23 18 48.7   I41 – Palomar Mountain--ZTF MPS 461631
2013 03 18.12511 09 44 02.35 +23 15 52.7   I41 – Palomar Mountain--ZTF MPS 461631
2013 03 18.15417 09 44 01.59 +23 15 51.1   I41 – Palomar Mountain--ZTF MPS 461631
2013 03 19.26402 09 43 33.91 +23 14 56.9   I41 – Palomar Mountain--ZTF MPS 461631
2013 03 19.29337 09 43 33.15 +23 14 55.2   I41 – Palomar Mountain--ZTF MPS 461631
2013 03 19.32279 09 43 32.37 +23 14 54.3   I41 – Palomar Mountain--ZTF MPS 461631
2014 02 09.56009 11 49 11.972 +01 15 19.50 20.7 w F51 – Pan-STARRS 1, Haleakala MPS 501569
2014 02 09.57235 11 49 11.690 +01 15 19.79 20.7 w F51 – Pan-STARRS 1, Haleakala MPS 501569
2014 02 09.58460 11 49 11.404 +01 15 20.45 20.9 w F51 – Pan-STARRS 1, Haleakala MPS 501569
2014 02 22.33989 11 43 48.39 +01 26 19.3   691 – Steward Observatory, Kitt Peak-Spacewatch MPS 503858
2014 02 22.35757 11 43 47.87 +01 26 20.8   691 – Steward Observatory, Kitt Peak-Spacewatch MPS 503858
2014 02 22.37526 11 43 47.39 +01 26 21.8   691 – Steward Observatory, Kitt Peak-Spacewatch MPS 503858
2014 02 28.40826 11 40 49.995 +01 33 55.32 20.7 w F51 – Pan-STARRS 1, Haleakala MPS 505282
2014 02 28.42076 11 40 49.608 +01 33 56.25 20.6 w F51 – Pan-STARRS 1, Haleakala MPS 505282
2014 02 28.43313 11 40 49.225 +01 33 57.35 20.5 w F51 – Pan-STARRS 1, Haleakala MPS 505282
2014 02 28.44551 11 40 48.833 +01 33 58.35 20.5 w F51 – Pan-STARRS 1, Haleakala MPS 505282
2014 03 24.35182 11 28 08.601 +02 10 02.31 20.5 w F51 – Pan-STARRS 1, Haleakala MPS 508404
2014 03 24.36393 11 28 08.215 +02 10 03.48 20.5 w F51 – Pan-STARRS 1, Haleakala MPS 508404
2014 03 24.38821 11 28 07.438 +02 10 05.57 20.6 w F51 – Pan-STARRS 1, Haleakala MPS 508404
2015 04 19.10249 12 59 41.08 -19 25 22.5 20.7 V W84 – Cerro Tololo-DECam MPS 789688
2015 04 19.10565 12 59 40.97 -19 25 22.2   W84 – Cerro Tololo-DECam MPS 789688
2015 04 19.10882 12 59 40.87 -19 25 21.8   W84 – Cerro Tololo-DECam MPS 789688
2015 04 19.11200 12 59 40.76 -19 25 21.4   W84 – Cerro Tololo-DECam MPS 789688
2015 04 19.11518 12 59 40.66 -19 25 21.1   W84 – Cerro Tololo-DECam MPS 789688
2015 04 21.10470 12 58 36.83 -19 21 28.4 20.5 V W84 – Cerro Tololo-DECam MPS 789688
2015 04 21.10788 12 58 36.73 -19 21 28.1   W84 – Cerro Tololo-DECam MPS 789688
2015 04 21.11111 12 58 36.63 -19 21 27.6   W84 – Cerro Tololo-DECam MPS 789688
2015 04 21.11434 12 58 36.52 -19 21 27.3   W84 – Cerro Tololo-DECam MPS 789688
2015 04 21.11758 12 58 36.41 -19 21 26.9   W84 – Cerro Tololo-DECam MPS 789688
